Погода Петровский Завод

Погода Петровский Завод : погода сейчас, прогноз погоды и архив. Всё, что Вы хотите узнать о погоде Петровский Завод!

Хотите узнать прогноз погоды Петровский Завод? Тогда Вам сюда: Погода Петровский Завод

Поиск расширенной информации на нашем сайте:

Другие новости

Новости СМИ2

Главная страница сайта

Новости сайта

03.07.2017

Напоминаем, что на нашем специализированном сайте Метеоцентр.Азия вы можете получить высокодетализированные автоматические прогнозы погоды по пунктам России, СНГ и мира в авиационном формате (включающие направление и скорость ветра, видимость, явления погоды, количество и форму облачности, нижнюю и верхнюю границу облачности).

Рекомендуем: шкуры чернобурки купить

Погода Петровский Завод - сегодня

Время (UTC), дата Ветер
(°,м/с) 
Видим.   Явления Облачность Т
(°С)
Тd
(°С)
f(%) Тe
(°С)
Pmin
(гПа)
dP
(гПа)
Po
(мм)
O2
(г/м3)
Тmin Tmax R s Состояние
почвы
15 17.10.17 020 (С) н/о    н/о 
-7.3 -9.7 83 -7  1028.9  1.2  696  289           
18 17.10.17 010 (С) н/о    ясно 
-8.4 -10 88 -8  1029.7  0.3  696  290           
21 17.10.17 020 (С) н/о    н/о 
-8.5 -9.9 90 -8  1029.8  696  290           
00 18.10.17 320 (СЗ) 20000 м    3/0 верхняя 
[Ci sp]
-8 -9.4 90 -8  1030.6  0.9  697  290  -9.8         
03 18.10.17 150 (ЮВ) н/о    н/о 
+5 -2.6 58 +5  1025.7  0.1  697  276           
06 18.10.17 270 (З) 20000 м    8/8 600 м кучево-дожд. 
[Cb cap]
+8.6 -2.5 46 +7  1023  -1.2  696  272           
09 18.10.17 310 (СЗ) н/о    н/о 
+7.1 -4.1 45 +7  1022.6  -0.9  696  273           
12 18.10.17 тихо ()   н/о    3/0 средняя 
[Ac trans]
-3.1 -5.9 81 -3  1026.2  0.1  695  284    +8.6       
15 18.10.17 тихо ()   н/о    н/о 
-6.9 -8 92 -7  1027.3  -0.4  695  288           
18 18.10.17 тихо ()   н/о    ясно 
-9 -10.1 92 -9  1026.8  -1.2  694  290           
21 18.10.17 020 (С) н/о    н/о 
-10.8 -12 91 -11  1025.8  -1.5  693  292           
00 19.10.17 тихо ()   4000 м  дымка  10/4 600 м кучево-дожд., верхняя 
[Cb cap|Ci sp]
-9.9 -10.8 93 -10  1024.7  -0.7  693  290  -11.5         
03 19.10.17 110 (В) н/о    н/о 
+1.2 -3.9 69 +2  1019  -1.2  692  278           
06 19.10.17 240 (ЮЗ) 20000 м    ясно 
+9.9 -2.7 41 +9  1014.1  -1.7  690  269           
09 19.10.17 330 (СЗ) н/о    н/о 
+8.5 -4.7 39 +8  1015  0.4  691  270           
12 19.10.17 340 (С) н/о    ясно 
+3.8 -3.4 59 +3  1019.4  2.4  693  275    +10.3       
15 19.10.17 320 (СЗ) н/о    н/о 
-3.3 -5.7 83 -3  1024.1  1.9  694  284           
18 19.10.17 тихо ()   н/о    ясно 
-8 -9.2 91 -8  1027.5  1.4  695  289           
21 19.10.17 350 (С) н/о    н/о 
-10 -10.9 93 -10  1029.2  0.8  696  292           
00 20.10.17 020 (С) 20000 м    ясно 
-10.8 -12 91 -11  1030.6  696  293  -12.1         
03 20.10.17 280 (З) н/о    н/о 
+2.4 -4.4 61 +2  1025.5  696  279           
06 20.10.17 220 (ЮЗ) 20000 м    1/1 600 м кучево-дожд. 
[Cb cap]
+6.4 -8.3 34 +5  1022.5  -1.4  695  274           
09 20.10.17 260 (З) н/о    н/о 
+5.1 -6.8 42 +6  1022.1  -0.8  695  275           
12 20.10.17 280 (З) н/о    ясно 
-2.9 -8.1 67 -2  1025.9  0.7  695  284    +6.8       
15 20.10.17 010 (С) н/о    н/о 
-7 -9.3 84 -7  1027.9  0.4  696  288           
Время (UTC), дата Ветер
(°,м/с) 
Видим.   Явления Облачность Т
(°С)
Тd
(°С)
f(%) Тe
(°С)
Pmin
(гПа)
dP
(гПа)
Po
(мм)
O2
(г/м3)
Тmin Tmax R s Состояние
почвы

Для получения пояснительной информации подведите курсор к названию столбца.

ПОГОДА Петровский Завод - архив

Всё, что Вы хотите узнать о погоде Петровский Завод - удобно и подробно!

Выберите нужную дату (начиная с 1 января 2015* года) и нажмите кнопку "Найти".
Будут отображены архивные сводки погоды по пункту Петровский Завод, начиная с указанной даты.


Отображать данные в формате CSV (для использования в таблицах Excel)


Внимание! Наш архив погоды предназначен исключительно для личного некоммерческого использования в познавательных целях. Если Вам необходимы официальные справки о состоянии погоды (для производственных, юридических, коммерческих и т.п. целей), обращайтесь в органы Росгидромета.

*Примечание: данная дата относится к архиву по метеостанциям СССР (Россия, СНГ, Балтия).
Архив по метеостанциям Зарубежной Европы и Азии (кроме Китая) хранится 10 дней, по другим регионам земного шара (Китай, Африка, Америка, Австралия, Океания) - 1 день.

Петровский Завод - район местоположения метеостанции


Название, широта, долгота, высота метеостанции:
Петровский Завод 51.3°ш. 108.9°д. 806 м над ур. моря [Российская Федерация]

Дополнительная информация

В oтличие oт бoльшинства пoгoдных сайтoв мы публикуем пoдрoбную метеoинфoрмацию в детальнoм прoфессиoнальнoм фoрмате.

Характеристики температуры и влажнoсти вoздуха измеряются на высoте 2 м в тени вдали oт зданий и деревьев.
Скoрoсть ветра измеряется на высoте 10 м (на урoвне рoста челoвека скoрoсть ветра ниже в 1.5-2 раза). Если метеoстанция нахoдится в гoрoде или в лесу, тo скoрoсть ветра занижена на 2-4 м/с пo сравнению с oткрытым местoм. Скoрoсть ветра над акватoриями крупных рек и oзёр, а также на вершинах хoлмoв на 2-5 м/с выше, чем в oбычных услoвиях.
Атмoсфернoе давление в разных тoчках местнoсти мoжет значительнo oтличаться oт давления на метеoстанции, в зависимoсти oт услoвий рельефа (при пoдъёме на 10 м давление пoнижается примернo на 1 мм рт.ст.).